Location: Unspecified
(50.7693°N, 0.0000°E)
Time: 11:55:25
(UTC+00:00)

deb Explorer IX - Pass Details

Date: 24 June 2019
Orbit: 539 x 1112 km, 38.8° (Epoch: 19 July)

Event Time Altitude Azimuth Distance (km) Brightness Sun altitude
Rises 12:36:04 0° 214° (SW) 3,718 ? 61.9°
Reaches altitude 10° 12:39:24 10° 198° (SSW) 2,847 ? 61.7°
Maximum altitude 12:44:15 20° 154° (SSE) 2,269 ? 61.5°
Drops below altitude 10° 12:49:17 10° 111° (ESE) 2,971 ? 61.2°
Sets 12:52:51 0° 96° (E) 3,931 ? 60.9°
